Location: Nena
(32.3271°N, 96.8558°W)
Time: 06:39:23
(UTC+00:00)

DMSP B5D2-2 - Pass Details

Date: 06 October 2022
Orbit: 788 x 806 km, 98.3° (Epoch: 06 December)

Event Time Altitude Azimuth Distance (km) Brightness Sun altitude
Rises 11:58:57 0° 174° (S) 3,290 7.4 -6.3°
Reaches altitude 10° 12:01:17 10° 177° (S) 2,366 6.6 -5.8°
Maximum altitude 12:06:29 66° 258° (WSW) 877 4.1 -4.7°
Drops below altitude 10° 12:11:44 10° 341° (NNW) 2,388 6.3 -3.6°
Sets 12:14:06 0° 344° (NNW) 3,324 7.1 -3.1°
